KINEIS-3C

Last updated on Wed Aug 19 2026 00:02:55 GMT+0000 (Coordinated Universal Time)

1 61220U 24172A 26230.18938746 .00001324 00000+0 21730-3 0 9991 2 61220 98.0421 319.4281 0000803 30.8579 329.2675 14.72301206102191
UTC large
Height (km)
Speed (km/s)
/
Latitude / Longitude
Inclination (degrees)
Orbital Period (minutes)
Azimuth
Elevation
Range (km)
Doppler Factor

Next 0 passes for location: London (51.5072 / 0.1276)

No passes found over London.
KINEIS-3C